GW5991 Weather Reports


time (UTC)temp
F
wind
direction
speed
knots
gust
knots
rain 1hr
in
rain 24hr
in
rain mn
in
humidity
%
barometer
mb
20260506051249 46 258 0.0 0.0 0.00 0.00 0.00 79 1018.5
20260506050747 46 300 0.0 0.0 0.00 0.00 0.00 79 1018.6
20260506050244 47 137 0.0 0.0 0.00 0.00 0.00 80 1018.2
20260506044735 47 323 0.0 0.0 0.00 0.00 0.00 77 1018.2
20260506044232 47 155 0.0 0.0 0.00 0.00 0.00 77 1018.1
20260506043730 48 180 0.0 0.0 0.00 0.00 0.00 77 1018.1
20260506043227 48 91 0.0 0.0 0.00 0.00 0.00 75 1017.9
20260506042726 48 329 0.0 0.0 0.00 0.00 0.00 75 1017.9
20260506042224 48 196 0.0 0.0 0.00 0.00 0.00 75 1017.7
20260506041722 48 49 0.0 0.0 0.00 0.00 0.00 74 1017.7
20260506041219 48 203 0.0 0.0 0.00 0.00 0.00 73 1017.7
20260506040716 49 75 0.0 0.0 0.00 0.00 0.00 72 1017.8
20260506040213 49 124 0.0 0.0 0.00 0.00 0.00 71 1017.6
20260506035709 49 2 0.0 0.0 0.00 0.00 0.00 71 1017.6
20260506035207 49 2 0.0 0.0 0.00 0.00 0.00 70 1017.4
20260506034703 49 319 0.0 0.0 0.00 0.00 0.00 71 1017.3
20260506034201 50 124 0.0 0.0 0.00 0.00 0.00 70 1017.3
20260506033658 50 351 0.0 0.0 0.00 0.00 0.00 69 1017.3
20260506033155 50 195 0.0 0.0 0.00 0.00 0.00 69 1017.4
20260506032652 50 34 0.0 0.0 0.00 0.00 0.00 68 1017.3
20260506032149 50 170 0.0 0.0 0.00 0.00 0.00 68 1017.2
20260506031645 50 349 0.0 0.0 0.00 0.00 0.00 68 1017.3
20260506031142 51 236 0.0 0.0 0.00 0.00 0.00 67 1017.1
20260506030641 51 196 0.0 0.0 0.00 0.00 0.00 67 1017.1
20260506030138 51 301 0.0 0.0 0.00 0.00 0.00 66 1017.0
20260506025635 51 175 0.0 0.9 0.00 0.00 0.00 65 1017.0
20260506025130 51 216 0.0 0.0 0.00 0.00 0.00 65 1017.1
20260506024628 52 329 0.0 0.0 0.00 0.00 0.00 64 1016.8
20260506024124 52 247 0.0 0.0 0.00 0.00 0.00 64 1016.8
20260506023621 52 207 0.0 0.0 0.00 0.00 0.00 64 1016.7
20260506023118 52 112 0.0 0.0 0.00 0.00 0.00 64 1016.8
20260506022615 52 27 0.0 0.0 0.00 0.00 0.00 63 1016.7
20260506022112 52 15 0.0 0.0 0.00 0.00 0.00 61 1016.5
20260506021610 52 202 0.0 0.9 0.00 0.00 0.00 61 1016.5
20260506021107 53 242 0.0 0.0 0.00 0.00 0.00 61 1016.5
20260506020604 53 356 0.0 0.0 0.00 0.00 0.00 60 1016.5
20260506015559 53 153 0.0 0.9 0.00 0.00 0.00 60 1016.3
20260506015056 53 312 0.0 0.0 0.00 0.00 0.00 60 1016.4
20260506014554 54 327 0.0 0.0 0.00 0.00 0.00 58 1016.1
20260506014049 54 268 0.0 0.9 0.00 0.00 0.00 58 1016.1
20260506013548 54 258 0.0 0.0 0.00 0.00 0.00 58 1016.2
20260506013044 54 228 0.0 0.0 0.00 0.00 0.00 58 1016.0
20260506012540 55 182 0.0 0.9 0.00 0.00 0.00 57 1015.8
20260506012037 55 153 0.0 0.9 0.00 0.00 0.00 58 1015.9
20260506011535 55 200 0.0 0.0 0.00 0.00 0.00 57 1015.7
20260506011031 55 259 0.0 0.0 0.00 0.00 0.00 55 1015.8
20260506010530 56 38 0.0 0.0 0.00 0.00 0.00 55 1015.9
20260506010026 56 75 0.0 0.9 0.00 0.00 0.00 55 1015.9
20260506005523 56 356 0.0 0.0 0.00 0.00 0.00 56 1015.9
20260506005019 57 130 0.0 0.0 0.00 0.00 0.00 54 1015.8
20260506004517 57 74 0.0 0.0 0.00 0.00 0.00 51 1015.8
20260506004013 57 335 0.0 0.0 0.00 0.00 0.00 53 1015.9
20260506003510 57 343 0.0 0.0 0.00 0.00 0.00 50 1015.7
20260506003006 57 168 0.0 0.0 0.00 0.00 0.00 48 1015.7
20260506002502 57 237 0.0 0.0 0.00 0.00 0.00 50 1015.8
20260506001957 57 210 0.0 0.0 0.00 0.00 0.00 50 1015.7
20260506001454 57 160 0.0 0.0 0.00 0.00 0.00 48 1015.7
20260506000952 59 111 0.0 0.9 0.00 0.00 0.00 47 1015.7
20260506000449 59 92 0.0 0.0 0.00 0.00 0.00 48 1015.5
20260505235946 59 86 0.0 0.0 0.00 0.00 0.00 46 1015.6
20260505235444 58 303 0.0 0.0 0.00 0.00 0.00 47 1015.6
20260505234941 58 309 0.9 1.7 0.00 0.00 0.00 46 1015.5
20260505234438 58 182 0.0 0.0 0.00 0.00 0.00 48 1015.5
20260505233934 59 130 0.0 0.0 0.00 0.00 0.00 49 1015.5
20260505233432 60 302 0.0 0.9 0.00 0.00 0.00 45 1015.3
20260505232930 61 256 0.0 0.9 0.00 0.00 0.00 44 1015.3
20260505232428 63 252 0.0 0.0 0.00 0.00 0.00 41 1015.3
20260505231924 62 1 0.0 0.0 0.00 0.00 0.00 44 1015.6
20260505231422 61 98 0.0 0.0 0.00 0.00 0.00 45 1015.5
20260505230920 61 45 0.0 0.0 0.00 0.00 0.00 48 1015.4
20260505230417 61 150 0.0 0.0 0.00 0.00 0.00 47 1015.3
20260505225913 60 274 0.0 0.0 0.00 0.00 0.00 50 1015.3
20260505225411 60 248 0.0 0.0 0.00 0.00 0.00 52 1015.3
20260505224906 61 258 0.0 0.0 0.00 0.00 0.00 52 1015.1
20260505224403 60 187 0.0 0.0 0.00 0.00 0.00 52 1015.0
20260505223900 60 317 0.0 0.0 0.00 0.00 0.00 54 1015.0
20260505223357 61 48 0.0 0.0 0.00 0.00 0.00 55 1015.0
20260505222853 61 168 0.0 0.0 0.00 0.00 0.00 51 1014.9
20260505222350 62 149 0.0 0.0 0.00 0.00 0.00 51 1014.8
20260505221846 63 274 0.0 0.0 0.00 0.00 0.00 50 1014.9
20260505221343 62 110 0.0 0.0 0.00 0.00 0.00 55 1014.7
20260505220840 62 183 0.0 0.0 0.00 0.00 0.00 49 1014.7
20260505220337 61 92 0.0 0.0 0.00 0.00 0.00 53 1014.8
20260505215835 61 48 0.0 0.0 0.00 0.00 0.00 50 1014.8
20260505215333 62 264 0.0 0.0 0.00 0.00 0.00 51 1014.8
20260505214831 63 181 0.0 0.0 0.00 0.00 0.00 47 1014.7
20260505214328 63 214 0.0 0.0 0.00 0.00 0.00 49 1014.6
20260505213825 61 277 0.0 0.0 0.00 0.00 0.00 51 1014.8
20260505213323 62 2 0.0 0.0 0.00 0.00 0.00 49 1014.6
20260505212818 62 15 0.0 0.9 0.00 0.00 0.00 48 1014.6
20260505212316 62 286 0.0 0.0 0.00 0.00 0.00 48 1014.5
20260505211812 63 306 0.0 0.0 0.00 0.00 0.00 46 1014.4
20260505211310 64 214 0.0 0.0 0.00 0.00 0.00 47 1014.6
20260505210806 64 292 0.0 0.9 0.00 0.00 0.00 49 1014.4
20260505210303 64 44 0.0 0.0 0.00 0.00 0.00 47 1014.3
20260505205800 64 62 0.0 0.0 0.00 0.00 0.00 49 1014.2
20260505205258 65 154 0.0 0.0 0.00 0.00 0.00 49 1014.2
20260505204754 64 248 0.0 0.0 0.00 0.00 0.00 50 1014.1
20260505204253 64 83 0.0 0.0 0.00 0.00 0.00 51 1014.1
20260505203749 64 186 0.0 0.0 0.00 0.00 0.00 53 1014.0
20260505203246 64 291 0.0 0.0 0.00 0.00 0.00 49 1013.9
20260505202742 64 282 0.0 0.0 0.00 0.00 0.00 48 1013.9
20260505202238 64 160 0.0 0.0 0.00 0.00 0.00 51 1014.0
20260505201735 64 82 0.0 0.0 0.00 0.00 0.00 50 1013.9
20260505201233 63 204 0.0 0.0 0.00 0.00 0.00 50 1013.7
20260505200731 62 186 0.0 0.9 0.00 0.00 0.00 50 1013.8
20260505200228 62 336 0.0 0.0 0.00 0.00 0.00 51 1013.6
20260505195723 62 186 0.0 0.0 0.00 0.00 0.00 52 1013.6
20260505195221 61 227 0.0 0.0 0.00 0.00 0.00 52 1013.6
20260505194718 61 12 0.0 0.0 0.00 0.00 0.00 54 1013.7
20260505194214 62 196 0.0 0.0 0.00 0.00 0.00 54 1013.7
20260505193710 62 37 0.0 0.0 0.00 0.00 0.00 57 1013.6
20260505193208 62 95 0.0 0.0 0.00 0.00 0.00 57 1013.6
20260505192706 62 342 0.0 0.9 0.00 0.00 0.00 54 1013.6
20260505192203 62 333 0.0 0.0 0.00 0.00 0.00 54 1013.5
20260505191701 63 247 0.0 0.0 0.00 0.00 0.00 55 1013.5
20260505191159 63 258 0.0 0.0 0.00 0.00 0.00 53 1013.3
20260505190655 63 191 0.0 0.0 0.00 0.00 0.00 56 1013.5
20260505190155 63 159 0.0 0.9 0.00 0.00 0.00 56 1013.4
20260505185652 62 174 0.0 0.0 0.00 0.00 0.00 55 1013.3
20260505185148 62 173 0.0 0.0 0.00 0.00 0.00 55 1013.1
20260505184645 63 63 0.0 0.0 0.00 0.00 0.00 52 1013.2
20260505184142 63 326 0.0 0.9 0.00 0.00 0.00 52 1013.2
20260505183639 63 269 0.0 0.0 0.00 0.00 0.00 53 1013.1
20260505183137 62 358 0.0 0.0 0.00 0.00 0.00 56 1013.2
20260505182632 62 12 0.0 0.0 0.00 0.00 0.00 58 1013.2
20260505182129 62 254 0.0 0.0 0.00 0.00 0.00 57 1013.2
20260505181626 63 171 0.0 0.0 0.00 0.00 0.00 58 1013.1
20260505181124 62 308 0.0 0.0 0.00 0.00 0.00 60 1013.0
20260505180619 62 244 0.0 0.0 0.00 0.00 0.00 57 1013.0
20260505180117 62 247 0.0 0.0 0.00 0.00 0.00 57 1013.0
20260505175613 62 275 0.0 0.0 0.00 0.00 0.00 57 1013.0
20260505175109 61 193 0.0 0.0 0.00 0.00 0.00 63 1012.9
20260505174606 59 54 0.0 0.0 0.00 0.00 0.00 64 1013.1
20260505174102 59 289 0.0 0.0 0.00 0.00 0.00 62 1013.0
20260505173559 59 68 0.0 0.0 0.00 0.00 0.00 64 1013.0
20260505173056 58 172 0.0 0.0 0.00 0.00 0.00 67 1013.0
20260505172554 59 155 0.0 0.0 0.00 0.00 0.00 64 1013.0
20260505172051 59 123 0.0 0.0 0.00 0.00 0.00 65 1012.8
20260505171550 58 47 0.0 0.0 0.00 0.00 0.00 70 1012.7
20260505171048 57 343 0.0 0.0 0.00 0.00 0.00 66 1012.8
20260505170544 56 57 0.0 0.0 0.00 0.00 0.00 71 1013.1
20260505170041 56 16 0.0 0.0 0.00 0.00 0.00 70 1013.1
20260505165536 55 161 0.0 0.0 0.00 0.00 0.00 72 1013.0
20260505165032 55 326 0.0 0.0 0.00 0.00 0.00 72 1013.0
20260505164528 55 240 0.0 0.0 0.00 0.00 0.00 72 1013.0
20260505164026 54 292 0.0 0.0 0.00 0.00 0.00 74 1012.9
20260505163525 53 328 0.0 0.0 0.00 0.00 0.00 75 1012.7
20260505163021 52 0 0.0 0.0 0.00 0.00 0.00 79 1012.7
20260505162515 51 71 0.0 0.0 0.00 0.00 0.00 82 1012.7
20260505162011 51 72 0.0 0.0 0.00 0.00 0.00 82 1012.7
20260505161508 51 170 0.0 0.0 0.00 0.00 0.00 81 1012.7
20260505161006 51 160 0.0 0.0 0.00 0.00 0.00 83 1012.6
20260505160503 51 128 0.0 0.0 0.00 0.00 0.00 81 1012.6
20260505152940 47 203 0.0 0.0 0.00 0.00 0.00 92 1012.1
20260505152437 46 224 0.0 0.0 0.00 0.00 0.00 92 1012.0
20260505151932 46 184 0.0 0.0 0.00 0.00 0.00 91 1012.0
20260505151428 46 340 0.0 0.0 0.00 0.00 0.00 92 1012.1
20260505150925 45 340 0.0 0.0 0.00 0.00 0.00 92 1011.8
20260505150422 45 340 0.0 0.0 0.00 0.00 0.00 92 1011.8
20260505140352 42 25 0.0 0.0 0.00 0.00 0.00 96 1011.8
20260505124805 41 160 0.0 0.0 0.00 0.00 0.00 96 1011.5
20260505124302 41 177 0.0 0.0 0.00 0.00 0.00 96 1011.6
20260505123757 41 203 0.0 0.0 0.00 0.00 0.00 96 1011.6
20260505123254 41 203 0.0 0.0 0.00 0.00 0.00 96 1011.5
20260505122751 41 207 0.0 0.0 0.00 0.00 0.00 96 1011.3
20260505122248 42 307 0.0 0.0 0.00 0.00 0.00 96 1011.3
20260505121745 42 42 0.0 0.0 0.00 0.00 0.00 96 1011.3
20260505121241 42 57 0.0 0.0 0.00 0.00 0.00 96 1011.4
20260505120738 42 196 0.0 0.0 0.00 0.00 0.00 96 1011.3
20260505120234 42 196 0.0 0.0 0.00 0.00 0.00 96 1011.3
20260505115732 42 196 0.0 0.0 0.00 0.00 0.00 96 1011.2
20260505115231 42 196 0.0 0.0 0.00 0.00 0.00 96 1011.2
20260505114727 42 197 0.0 0.0 0.00 0.00 0.00 95 1011.2
20260505114223 42 197 0.0 0.0 0.00 0.00 0.00 95 1011.2
20260505113720 42 197 0.0 0.0 0.00 0.00 0.00 95 1011.1
20260505113217 42 197 0.0 0.0 0.00 0.00 0.00 95 1011.1
20260505112714 42 197 0.0 0.0 0.00 0.00 0.00 95 1011.2
20260505112212 42 197 0.0 0.0 0.00 0.00 0.00 95 1011.2
20260505111711 42 168 0.0 0.0 0.00 0.00 0.00 95 1011.4
20260505111208 42 170 0.0 0.0 0.00 0.00 0.00 95 1011.6
20260505110704 42 169 0.0 0.0 0.00 0.00 0.00 95 1011.4
20260505110202 42 169 0.0 0.0 0.00 0.00 0.00 95 1011.5
20260505102137 42 171 0.0 0.0 0.00 0.00 0.00 94 1011.9
20260505101636 42 171 0.0 0.0 0.00 0.00 0.00 94 1011.7
20260505101132 42 171 0.0 0.0 0.00 0.00 0.00 94 1011.7
20260505100628 43 171 0.0 0.0 0.00 0.00 0.00 94 1011.7
20260505100125 43 171 0.0 0.0 0.00 0.00 0.00 94 1011.9
20260505095621 43 171 0.0 0.0 0.00 0.00 0.00 94 1011.8
20260505095118 43 171 0.0 0.0 0.00 0.00 0.00 94 1011.7
20260505094614 43 171 0.0 0.0 0.00 0.00 0.00 94 1011.6
20260505094110 43 171 0.0 0.0 0.00 0.00 0.00 94 1011.8
20260505093607 43 171 0.0 0.0 0.00 0.00 0.00 93 1011.7
20260505093104 43 171 0.0 0.0 0.00 0.00 0.00 93 1011.7
20260505092601 43 171 0.0 0.0 0.00 0.00 0.00 93 1012.0
20260505092100 43 171 0.0 0.0 0.00 0.00 0.00 93 1011.9
20260505091556 43 172 0.0 0.0 0.00 0.00 0.00 93 1011.7
20260505091054 43 172 0.0 0.0 0.00 0.00 0.00 93 1011.7
20260505090552 43 174 0.0 0.0 0.00 0.00 0.00 93 1011.9
20260505090050 43 173 0.0 0.0 0.00 0.00 0.00 92 1011.8
20260505085547 43 174 0.0 0.0 0.00 0.00 0.00 92 1011.9
20260505085045 44 174 0.0 0.0 0.00 0.00 0.00 92 1011.9
20260505084543 44 174 0.0 0.0 0.00 0.00 0.00 92 1011.8
20260505084041 44 174 0.0 0.0 0.00 0.00 0.00 92 1011.9
20260505083537 44 184 0.0 0.0 0.00 0.00 0.00 92 1012.1
20260505083034 44 86 0.0 0.0 0.00 0.00 0.00 92 1012.0
20260505082530 44 85 0.0 0.0 0.00 0.00 0.00 92 1011.9
20260505082027 44 86 0.0 0.0 0.00 0.00 0.00 91 1012.0
20260505081523 44 86 0.0 0.0 0.00 0.00 0.00 91 1011.9
20260505081020 44 85 0.0 0.0 0.00 0.00 0.00 91 1011.8
20260505080517 44 92 0.0 0.0 0.00 0.00 0.00 91 1011.8
20260505080014 44 92 0.0 0.0 0.00 0.00 0.00 90 1012.0
20260505075509 44 92 0.0 0.0 0.00 0.00 0.00 90 1012.0
20260505075006 45 92 0.0 0.0 0.00 0.00 0.00 90 1011.9
20260505074504 45 92 0.0 0.0 0.00 0.00 0.00 89 1011.9
20260505074001 45 92 0.0 0.0 0.00 0.00 0.00 89 1012.2
20260505073458 45 92 0.0 0.0 0.00 0.00 0.00 89 1012.0
20260505072955 45 92 0.0 0.0 0.00 0.00 0.00 89 1012.1
20260505072451 45 115 0.0 0.0 0.00 0.00 0.00 89 1012.1
20260505071948 46 115 0.0 0.0 0.00 0.00 0.00 88 1012.0
20260505071444 46 115 0.0 0.0 0.00 0.00 0.00 87 1012.2
20260505070942 46 115 0.0 0.0 0.00 0.00 0.00 87 1012.2
20260505070438 46 116 0.0 0.0 0.00 0.00 0.00 87 1012.1
20260505065934 46 116 0.0 0.0 0.00 0.00 0.00 86 1012.2
20260505065431 46 115 0.0 0.0 0.00 0.00 0.00 85 1012.0
20260505064928 47 115 0.0 0.0 0.00 0.00 0.00 85 1012.0
20260505064425 47 154 0.0 0.0 0.00 0.00 0.00 84 1012.1
20260505063923 47 297 0.0 0.0 0.00 0.00 0.00 85 1012.1
20260505063419 47 297 0.0 0.0 0.00 0.00 0.00 84 1012.1
20260505062915 48 298 0.0 0.0 0.00 0.00 0.00 83 1012.3
20260505062413 48 267 0.0 0.0 0.00 0.00 0.00 83 1012.3
20260505061909 48 163 0.0 0.0 0.00 0.00 0.00 84 1012.3
20260505061408 48 96 0.0 0.0 0.00 0.00 0.00 84 1012.2
20260505060905 48 140 0.0 0.0 0.00 0.00 0.00 84 1012.0
20260505060402 48 14 0.0 0.0 0.00 0.00 0.00 84 1012.2
20260505055858 48 148 0.0 0.0 0.00 0.00 0.00 84 1012.3